Notices

What's New in latest Release from April 7th, 2021:

- Updated Glossary, including Speed of Maximum Gust, and Total Hourly Precipitation

- Updated national and regional climate services offices contacts and prices information

- Addition of station inventory lists for 1981-2010, 1971-2000, and 1961-1990 Normals.

If you haven't already, please take our survey and provide feedback about our website: https://eccc.sondage-survey.ca/f/LanguageSelection.aspx?s=442ca660-fcf1-47c0-95a9-59707d6fd709

Hourly Data Report for April 16, 2018

KENORA A
ONTARIO
Current Station Operator: NAVCAN

49°47'18.000" N
94°21'47.000" W
409.70 m
6034076
71850
YQK

Download Data

Hourly Data (April 2018)
Hourly Data Report for April 16, 2018
TIME
LST
Temp Definition
°C
Dew Point Definition
°C
Rel Hum Definition
%
Precip. Amount Definition
mm

Wind Dir Definition
10's deg

Wind Spd Definition
km/h
Visibility Definition
km
Stn Press Definition
kPa
Hmdx Definition


Wind Chill Definition


Weather Definition


00:00 -3.2 -13.0 47   3 12 24.1 97.51   -8 Cloudy
01:00 -3.3 -12.8 48   4 9 24.1 97.47   -7 LegendNANA
02:00 -3.5 -12.7 49   3 10 24.1 97.42   -7 LegendNANA
03:00 -3.6 -13.5 47   5 17 24.1 97.38   -9 Cloudy
04:00 -4.1 -13.2 50   4 9 24.1 97.40   -8 LegendNANA
05:00 -4.7 -13.2 52   3 8 24.1 97.38   -8 LegendNANA
06:00 -4.9 -13.3 52   3 13 24.1 97.38   -10 Cloudy
07:00 -4.4 -12.7 53   3 13 24.1 97.39   -9 LegendNANA
08:00 -3.3 -12.6 49   4 15 24.1 97.35   -8 LegendNANA
09:00 -2.7 -13.3 44   4 15 24.1 97.35   -8 Mostly Cloudy
10:00 -1.3 -11.1 48   6 9 24.1 97.31   -5 LegendNANA
11:00 -1.1 -10.2 51   6 16 24.1 97.29   -6 LegendNANA
12:00 0.1 -10.5 45   4 15 24.1 97.28     Mostly Cloudy
13:00 1.0 -11.0 40   1 17 24.1 97.24     LegendNANA
14:00 0.9 -11.8 38   6 18 24.1 97.23     LegendNANA
15:00 1.1 -12.5 36   3 16 24.1 97.19     Mostly Cloudy
16:00 1.7 -12.4 35   4 16 24.1 97.15     LegendNANA
17:00 2.1 -13.1 32   3 15 24.1 97.16     LegendNANA
18:00 2.0 -11.9 35   2 9 24.1 97.12     Mainly Clear
19:00 1.1 -13.6 33   2 6 24.1 97.09     LegendNANA
20:00 0.2 -15.4 30   1 7 24.1 97.09     LegendNANA
21:00 -0.6 -15.4 32   1 9 24.1 97.09   -4 Clear
22:00 -1.5 -15.2 35   1 10 24.1 97.10   -5 LegendNANA
23:00 -2.2 -15.1 37   35 10 24.1 97.08   -6 LegendNANA

Notes on Data Quality.

Legend

  • E = Estimated
  • M = Missing
  • NA = Not Available*
  • [empty] = Indicates an unobserved value
Date modified: